Wind_Speed
3 3 5 8 5 5 3 1 6 2 5 3 4 6 10 16 11 12 21 25 28 32 34 33 35 32 30 27 25 21 19 27 26 22 16 12 14 17 17 15 12 9 9 8
2 5 9 4 4 4 3 3 4 1 5 3 6 7 5 12 16 19 20 24 29 33 34 36 40 37 33 30 25 20 25 31 30 24 20 14 17 17 13 13 14 14 9 7
7 6 8 5 3 4 3 4 3 2 3 2 4 4 6 8 15 26 26 27 32 34 35 40 43 42 37 34 29 23 25 35 31 25 22 16 16 19 16 13 14 14 10 9
5 5 5 5 5 7 5 7 8 6 5 4 2 3 5 7 14 14 27 25 32 32 36 43 46 45 41 37 31 25 26 34 31 26 27 22 18 23 17 10 8 12 12 10
8 7 8 9 6 7 10 7 6 6 5 3 1 3 6 3 8 10 19 31 32 33 38 46 48 46 43 39 35 28 28 29 34 27 27 23 21 21 16 12 9 13 14 10
8 3 6 9 7 7 3 2 2 4 3 2 6 5 6 6 13 16 20 31 34 37 36 44 48 45 45 42 38 32 30 31 31 32 30 25 22 22 21 16 12 16 16 13
0 4 4 2 4 2 5 5 2 2 0 6 6 3 13 8 6 13 18 25 32 38 37 42 48 50 48 46 43 37 33 31 32 39 35 28 26 23 23 18 11 12 17 17
7 8 7 3 8 7 6 9 6 6 4 4 6 6 8 8 22 22 31 32 26 40 41 43 47 52 51 48 46 42 37 33 36 46 39 31 26 24 26 21 16 15 13 15
5 5 4 7 4 11 4 5 9 5 1 2 5 7 9 5 9 16 24 28 31 36 42 43 46 50 53 50 49 45 40 35 40 48 43 36 30 25 27 23 20 16 15 15
9 1 4 4 6 4 7 6 4 2 6 5 5 5 5 5 2 3 8 23 28 28 36 37 41 46 50 51 49 47 41 37 36 47 44 41 37 29 26 26 24 22 18 18
5 5 6 4 4 8 3 3 3 5 5 6 3 7 7 8 8 7 8 12 9 19 26 33 39 39 43 47 47 48 46 42 37 37 46 44 42 36 30 31 26 23 21 21
2 6 5 9 2 4 8 9 8 5 5 2 4 7 5 3 4 17 14 17 17 20 22 22 24 30 37 43 44 47 47 46 41 37 38 44 44 41 36 35 31 26 26 24
2 1 1 9 6 3 5 5 5 4 3 8 5 6 8 6 6 14 27 18 17 20 20 19 19 20 36 42 44 46 43 43 43 41 38 38 44 45 44 40 36 32 30 29
4 3 6 10 7 5 3 4 5 6 4 5 7 5 3 8 7 6 17 17 13 17 20 20 17 17 29 43 43 42 41 38 38 41 41 37 39 44 46 45 42 39 36 33
4 2 2 3 4 4 4 4 1 5 4 7 8 10 4 12 14 13 17 23 20 12 11 13 3 7 30 34 38 40 40 39 39 36 39 40 34 34 40 46 42 43 43 41
7 3 2 1 3 6 5 9 5 8 5 3 7 2 0 11 20 25 20 23 29 24 20 17 17 19 23 21 21 30 33 37 38 38 35 37 40 35 34 38 40 42 42 44
4 2 1 4 3 4 5 11 5 9 11 6 5 6 13 10 14 15 24 26 26 25 22 21 21 22 24 21 19 21 24 27 32 37 36 37 39 39 39 37 37 36 38 40
5 1 1 3 2 4 5 3 13 15 14 16 10 9 15 18 17 25 20 23 24 20 19 17 14 14 16 15 16 17 17 22 30 30 30 32 34 38 39 40 39 38 37 37
16 1 2 4 3 4 1 3 2 1 7 12 6 9 19 19 20 24 22 21 20 18 17 14 11 12 12 10 11 15 15 14 16 17 28 34 35 37 39 42 43 40 40 39
7 6 4 2 5 4 2 4 9 4 4 9 9 10 7 1 5 4 15 18 18 16 16 14 11 9 7 7 6 8 11 12 12 12 13 23 31 34 37 39 42 42 44 44
4 5 4 2 4 2 5 16 7 4 5 6 18 16 15 6 9 15 11 14 14 13 16 16 13 12 12 8 4 2 2 3 5 9 13 14 16 24 32 38 39 40 42 44
3 2 4 1 4 3 23 6 2 8 10 18 21 17 19 15 14 13 12 10 10 11 12 13 12 12 12 10 8 6 4 4 7 8 8 12 15 15 21 26 31 35 36 40
3 2 2 4 5 5 18 18 12 13 20 18 19 18 16 15 12 11 11 10 11 12 12 12 12 14 13 10 9 10 12 10 7 7 9 10 11 14 17 23 24 28 31 35
2 7 2 0 5 7 24 28 28 17 11 12 13 14 15 12 10 9 10 11 12 12 11 10 9 13 11 9 10 12 13 14 13 13 10 11 11 12 13 13 16 22 26 30
2 3 2 4 5 6 11 23 21 17 16 13 8 11 15 10 9 12 13 12 11 9 9 12 13 13 12 10 11 11 12 14 16 17 16 11 11 12 13 15 13 16 21 25
4 2 2 2 4 1 7 18 19 16 15 12 10 6 8 5 9 12 13 16 15 7 5 3 6 10 10 12 12 11 11 12 15 18 21 19 15 12 14 16 18 14 17 19
Wind_Direction
183 125 210 220 170 186 118 123 283 107 132 135 184 176 195 197 214 216 194 197 207 209 207 204 197 194 192 193 197 198 201 185 181 182 187 189 177 163 165 169 170 163 168 162
46 196 227 194 173 207 130 254 277 295 147 142 181 218 239 193 218 220 222 211 207 208 206 203 198 196 195 194 199 204 190 185 186 186 187 198 185 173 168 171 175 181 173 188
175 223 222 162 209 232 144 191 247 240 134 35 186 270 194 226 209 224 235 227 209 207 205 198 197 196 196 197 197 201 193 189 189 193 189 195 191 194 188 185 186 199 207 202
209 225 218 202 192 179 266 176 237 138 121 218 203 265 257 198 198 192 205 204 202 208 208 200 198 197 199 202 200 199 196 188 189 198 194 203 199 193 196 195 210 210 208 218
223 187 184 213 191 158 238 158 205 174 166 121 88 65 267 157 205 200 202 207 205 203 203 199 201 202 203 203 203 202 200 195 199 202 200 194 193 192 204 204 223 216 214 221
211 232 184 190 203 187 52 43 37 74 99 286 195 138 261 189 212 209 198 205 208 200 201 206 206 205 204 206 205 204 204 202 203 204 201 200 193 201 209 209 213 210 215 211
229 243 259 182 188 82 102 90 316 355 302 227 183 152 249 252 217 216 195 206 201 201 197 200 203 204 206 206 206 207 207 205 204 203 203 202 205 207 210 210 217 217 217 211
169 246 174 181 176 170 168 156 163 187 213 241 172 231 248 240 272 209 212 200 200 200 197 198 208 210 209 208 208 209 209 207 203 197 203 205 209 207 204 213 233 226 227 217
134 250 269 210 146 145 197 154 192 134 16 76 235 295 307 290 314 188 182 193 194 202 199 199 208 213 212 211 211 211 212 210 203 198 202 204 212 213 209 217 222 220 231 222
208 156 241 193 124 224 157 182 86 8 176 211 275 265 238 256 146 187 176 186 201 205 202 198 206 213 215 215 215 214 216 213 206 205 208 208 211 214 215 217 223 221 226 223
128 119 270 83 195 177 89 155 85 127 145 184 183 273 218 235 185 168 107 109 172 215 204 201 205 212 214 217 217 217 218 216 213 213 215 215 213 216 219 221 222 222 224 226
255 149 207 208 229 194 169 188 164 157 231 216 168 255 274 199 167 131 134 122 150 159 160 174 200 213 216 219 222 223 223 222 222 219 219 219 219 219 222 224 227 228 229 232
168 328 160 328 348 2 190 193 157 125 109 196 167 262 341 106 113 143 146 151 144 164 182 187 190 205 219 221 224 224 224 227 228 226 224 224 221 222 226 228 228 232 234 235
95 125 192 214 209 189 160 152 169 145 140 182 202 216 247 94 95 109 102 125 143 179 190 185 208 253 219 219 219 226 227 231 232 232 227 227 227 226 228 230 230 231 236 240
52 230 210 246 182 178 100 33 49 170 193 171 209 185 211 149 136 115 101 97 105 129 166 187 317 196 193 206 217 222 225 228 229 234 233 230 229 230 231 232 233 233 234 240
353 276 264 200 245 220 112 23 49 57 350 209 122 133 292 82 121 112 98 91 96 100 95 110 137 154 163 181 206 223 227 229 232 229 239 238 234 233 233 233 233 236 237 239
310 332 110 236 220 134 26 354 67 82 35 310 192 172 127 107 108 97 113 116 113 116 119 124 125 137 160 174 181 197 217 230 229 230 240 243 235 240 240 239 239 239 240 242
274 344 187 212 73 143 178 48 93 84 37 13 46 84 88 101 91 88 90 95 101 104 112 113 123 130 141 162 178 184 192 211 222 233 241 244 246 248 248 247 245 245 245 246
208 176 103 137 73 103 286 25 320 123 44 15 22 79 102 94 82 67 76 79 88 91 98 109 112 125 143 163 173 183 188 196 209 223 233 239 245 251 252 253 253 253 251 250
149 232 130 111 117 149 152 327 328 315 73 13 33 42 8 272 112 92 76 78 77 82 83 86 95 99 116 124 158 179 195 209 210 214 230 236 238 242 247 251 256 258 259 258
15 348 86 74 101 327 35 325 290 120 161 87 78 63 66 81 79 98 83 76 81 83 81 74 71 76 74 82 82 108 157 229 245 245 239 251 251 249 251 251 251 255 258 261
87 51 40 8 80 1 351 347 126 127 105 102 91 85 84 74 69 67 66 65 71 70 72 65 57 55 45 42 40 38 19 317 295 293 284 266 257 258 258 262 260 257 255 256
61 38 95 32 80 11 15 33 81 115 106 93 92 90 83 74 65 63 62 59 64 61 63 62 53 48 31 17 22 28 21 17 1 296 281 280 277 270 274 266 258 257 255 255
11 25 80 119 354 22 30 46 45 49 63 73 81 78 62 60 67 67 48 44 50 54 61 60 64 62 51 46 28 26 17 7 11 2 321 286 277 269 275 283 265 253 256 260
284 5 38 74 347 110 26 12 11 25 49 48 51 56 68 14 18 17 27 22 28 34 29 34 24 45 37 34 34 20 17 5 354 351 344 331 290 279 270 275 278 265 257 259
3 176 99 125 164 49 307 335 339 345 357 6 23 62 70 307 314 340 353 359 346 343 8 34 5 27 25 25 26 26 19 7 356 348 344 350 341 302 283 278 263 262 265 264
Height
1483 1491 1500 1494 1494 1493 1497 1502 1504 1498 1502 1505 1509 1509 1505 1508 1513 1513 1513 1516 1521 1525 1528 1531 1535 1537 1540 1544 1548 1552 1555 1558 1559 1561 1564 1565 1567 1569 1571 1573 1576 1576 1577 1578
1486 1495 1485 1485 1488 1491 1497 1500 1502 1499 1502 1503 1510 1509 1504 1504 1507 1508 1510 1511 1515 1520 1523 1527 1532 1536 1539 1542 1547 1551 1553 1556 1559 1561 1564 1566 1568 1569 1571 1573 1575 1577 1578 1579
1488 1484 1479 1484 1488 1493 1499 1502 1500 1503 1504 1503 1506 1508 1505 1501 1501 1504 1507 1508 1511 1514 1518 1522 1528 1531 1537 1540 1544 1548 1552 1555 1559 1561 1563 1565 1567 1569 1571 1572 1574 1576 1578 1579
1481 1476 1479 1482 1488 1490 1505 1490 1490 1500 1509 1521 1502 1526 1501 1495 1494 1496 1499 1501 1505 1509 1513 1518 1522 1528 1532 1537 1542 1547 1551 1554 1558 1560 1563 1564 1566 1567 1570 1572 1574 1575 1577 1579
1481 1476 1481 1484 1484 1484 1490 1485 1489 1495 1505 1508 1510 1521 1501 1489 1494 1489 1489 1492 1498 1503 1507 1511 1515 1521 1527 1534 1539 1544 1549 1553 1557 1559 1562 1564 1565 1569 1571 1573 1574 1575 1576 1578
1474 1470 1472 1475 1476 1479 1480 1485 1490 1501 1512 1526 1507 1514 1500 1495 1475 1473 1478 1483 1489 1496 1500 1506 1511 1518 1524 1530 1536 1540 1545 1549 1553 1557 1560 1563 1565 1568 1570 1573 1574 1576 1577 1578
1475 1474 1469 1469 1477 1477 1484 1499 1522 1530 1531 1525 1504 1513 1482 1466 1468 1467 1469 1476 1481 1488 1495 1500 1507 1512 1519 1525 1531 1535 1540 1544 1549 1553 1557 1561 1564 1567 1569 1571 1573 1575 1576 1577
1493 1494 1471 1466 1472 1484 1488 1497 1526 1534 1533 1519 1502 1511 1480 1456 1450 1458 1462 1467 1479 1483 1488 1493 1497 1505 1513 1519 1525 1530 1535 1539 1543 1549 1555 1559 1562 1563 1567 1570 1572 1574 1576 1577
1492 1487 1463 1460 1464 1471 1485 1499 1488 1509 1511 1520 1509 1485 1463 1455 1451 1451 1456 1466 1472 1478 1483 1486 1491 1499 1507 1514 1520 1525 1531 1537 1541 1545 1550 1555 1560 1561 1564 1567 1571 1574 1575 1576
1468 1480 1463 1458 1460 1464 1472 1476 1501 1510 1523 1527 1510 1496 1485 1461 1455 1450 1453 1459 1465 1474 1481 1485 1490 1495 1503 1511 1517 1523 1528 1534 1539 1544 1548 1551 1555 1560 1563 1565 1568 1571 1573 1575
1464 1473 1472 1462 1466 1474 1478 1483 1487 1495 1504 1514 1525 1503 1461 1454 1449 1450 1456 1459 1463 1470 1476 1483 1486 1493 1501 1510 1516 1522 1526 1530 1534 1540 1545 1548 1551 1556 1559 1562 1564 1567 1570 1572
1460 1472 1483 1471 1458 1458 1463 1474 1478 1501 1504 1506 1507 1496 1451 1447 1452 1447 1454 1459 1464 1469 1474 1481 1488 1492 1498 1506 1509 1515 1523 1528 1531 1536 1541 1544 1549 1552 1555 1557 1561 1563 1566 1569
1458 1477 1488 1482 1471 1462 1463 1465 1468 1479 1487 1495 1505 1494 1452 1448 1456 1450 1448 1454 1459 1464 1470 1476 1481 1489 1491 1496 1505 1511 1514 1522 1528 1532 1536 1540 1544 1547 1550 1553 1557 1559 1561 1564
1455 1475 1476 1474 1475 1465 1463 1459 1461 1471 1494 1487 1488 1473 1464 1459 1460 1462 1457 1458 1460 1463 1464 1467 1472 1478 1485 1489 1495 1502 1510 1517 1522 1526 1531 1534 1538 1541 1545 1549 1552 1555 1557 1559
1461 1469 1465 1460 1454 1454 1456 1464 1460 1464 1464 1473 1467 1470 1464 1455 1459 1465 1465 1461 1462 1463 1459 1458 1462 1474 1482 1483 1490 1498 1504 1510 1516 1521 1525 1528 1533 1536 1540 1543 1546 1549 1552 1553
1469 1469 1462 1460 1454 1454 1464 1467 1461 1465 1466 1460 1461 1465 1462 1461 1461 1463 1467 1468 1467 1468 1468 1469 1478 1479 1483 1487 1491 1496 1500 1507 1513 1519 1517 1523 1528 1531 1534 1536 1539 1543 1545 1547
1481 1476 1474 1471 1458 1457 1476 1474 1472 1472 1471 1470 1462 1456 1460 1470 1471 1470 1470 1474 1474 1477 1480 1482 1483 1483 1483 1488 1495 1496 1496 1502 1507 1510 1514 1516 1520 1524 1528 1531 1533 1535 1538 1540
1480 1476 1477 1475 1462 1479 1478 1472 1469 1472 1475 1471 1464 1462 1464 1474 1481 1476 1476 1471 1472 1474 1474 1477 1479 1482 1483 1490 1494 1495 1497 1500 1503 1505 1508 1511 1513 1517 1520 1524 1526 1528 1531 1532
1473 1474 1476 1476 1486 1481 1477 1475 1475 1472 1483 1479 1477 1475 1473 1475 1479 1480 1481 1480 1479 1479 1480 1479 1482 1483 1486 1490 1491 1493 1495 1499 1499 1500 1503 1504 1507 1509 1512 1514 1516 1520 1523 1524
1468 1470 1466 1478 1476 1483 1479 1477 1476 1472 1486 1480 1478 1478 1477 1478 1483 1485 1486 1486 1485 1485 1485 1483 1484 1484 1486 1487 1489 1489 1491 1493 1493 1495 1497 1497 1499 1499 1501 1504 1507 1511 1514 1516
1474 1475 1471 1477 1484 1482 1478 1476 1473 1482 1489 1481 1478 1480 1480 1481 1485 1488 1491 1489 1490 1492 1487 1486 1488 1487 1486 1487 1489 1487 1487 1489 1489 1490 1491 1492 1490 1492 1494 1497 1498 1502 1505 1507
1486 1487 1483 1484 1488 1494 1480 1472 1476 1479 1480 1481 1480 1484 1484 1487 1487 1487 1488 1490 1490 1489 1485 1485 1484 1484 1486 1486 1485 1484 1484 1485 1485 1485 1484 1486 1486 1487 1487 1488 1489 1491 1495 1497
1486 1487 1485 1484 1490 1495 1488 1485 1484 1484 1483 1484 1483 1482 1486 1490 1492 1493 1493 1495 1491 1489 1487 1487 1488 1485 1486 1487 1486 1483 1484 1482 1482 1482 1483 1481 1481 1482 1482 1482 1484 1485 1486 1487
1486 1485 1485 1485 1493 1492 1491 1488 1487 1488 1488 1487 1486 1484 1485 1492 1496 1497 1492 1491 1491 1492 1493 1492 1491 1485 1489 1490 1487 1484 1483 1481 1479 1480 1479 1479 1478 1477 1477 1477 1476 1478 1479 1481
1490 1486 1490 1494 1495 1491 1492 1494 1494 1491 1491 1487 1487 1487 1483 1495 1495 1494 1494 1496 1493 1493 1489 1486 1488 1483 1485 1488 1484 1483 1482 1481 1480 1479 1480 1476 1474 1472 1472 1473 1473 1473 1473 1474
1492 1492 1493 1497 1499 1499 1498 1496 1496 1495 1495 1493 1490 1489 1483 1491 1496 1493 1491 1490 1496 1496 1492 1493 1496 1488 1486 1483 1483 1483 1482 1482 1481 1480 1478 1474 1470 1468 1467 1468 1468 1468 1467 1467